Regional Weather Roundup
Issued by NWS Green Bay, WI

Home | Current Version | Previous Version | Text Only | Print | Product List | Glossary On
Versions: 1 2 3 4 5 6 7 8 9 10 11 12 13 14 15 16 17 18 19 20 21 22 23 24 25 26 27 28 29 30 31 32 33 34 35 36 37 38 39 40 41 42 43 44 45 46 47 48 49 50
000
ASUS43 KGRB 190600
RWRGRB

NORTH-CENTRAL AND NORTHEAST WISCONSIN REGIONAL WEATHER ROUNDUP
NATIONAL WEATHER SERVICE GREEN BAY WI
1200 AM CST SUN NOV 19 2017

WIZ005-009-010>012-018-019-190700-
NORTH CENTRAL WISCONSIN

CITY           SKY/WX    TMP DP  RH WIND       PRES   REMARKS
IRONWOOD       FLURRIES N/A N/A N/A NW10G21   29.88
MANITOWISH WTR NOT AVBL
ARBOR VITAE    NOT AVBL
EAGLE RIVER    LGT SNOW  22  17  78 NW8       29.80R
LAND O LAKES   NOT AVBL
RHINELANDER    FLURRIES N/A N/A N/A NW10      29.83R
PHILLIPS       CLOUDY    21  13  71 NW9       29.87S
ANTIGO         NOT AVBL
TOMAHAWK       NOT AVBL
MERRILL        CLOUDY    24  16  70 NW13G21   29.87R
$$

WIZ013-073-190700-
NORTHEAST WISCONSIN

CITY           SKY/WX    TMP DP  RH WIND       PRES   REMARKS
IRON MOUNTAIN  CLOUDY    26  19  74 NW12      29.78R
MARINETTE      MIX PCPN  31  23  72 NW10G18   29.80R
$$

WIZ017-030-035>037-045-190700-
CENTRAL WISCONSIN

CITY           SKY/WX    TMP DP  RH WIND       PRES   REMARKS
MEDFORD        NOT AVBL
WAUSAU         CLOUDY    25  15  66 NW16G26   29.85R
MOSINEE        NOT AVBL
MARSHFIELD     CLOUDY    25  15  66 NW16      29.87R
WISC RAPIDS    CLOUDY    28  16  60 NW12      29.89R
STEVENS POINT  NOT AVBL
WAUPACA        NOT AVBL
SHAWANO        CLOUDY    32  23  70 NW14G21   29.82R
CLINTONVILLE   NOT AVBL
WAUTOMA        CLOUDY    30  20  66 NW12G18   29.88R
$$

WIZ038-039-048-051-190700-
FOX VALLEY

CITY           SKY/WX    TMP DP  RH WIND       PRES   REMARKS
NWS GREEN BAY  CLOUDY    32  26  78 NW15G21   29.81R
APPLETON       NOT AVBL
OSHKOSH        CLOUDY    32  22  66 NW15      29.83R
FOND DU LAC    CLOUDY    33  21  61 NW14      29.83R
$$

WIZ022-050-052-190700-
EAST CENTRAL WISCONSIN

CITY           SKY/WX    TMP DP  RH WIND       PRES   REMARKS
EPHRAIM        NOT AVBL
WASHINGTON ISL NOT AVBL
STURGEON BAY   CLOUDY    32  24  72 NW18G28   29.78R
MANITOWOC      CLOUDY    33  26  75 NW16      29.80R
SHEBOYGAN      CLOUDY    33  27  78 NW9G18    29.80R
$$

LMZ563-521-522-541>543-190700-
LAKESHORE

STATION/POSITION TIME  TEMP    WIND        PRES    VSBY  WAVE
                       AIR SEA DIR/SP/G                  HT/PER
                 (UTC) (F)     (DEG/KT/KT) (MB)    (MI)  (FT/S)
SHEBOYGAN LKSHOR 0500   35     330/ 14/ 18 1009.2R
NORTHPORT PIER   0540   34     320/ 26/ 31 1007.1R
N MID LAKE BUOY  0450   35 48  320/ 19/ 25 1006.5R         5/ 6
$$



USA.gov is the U.S. government's official web portal to all federal, state and local government web resources and services.